Weather History for KLMO - December, 2013

Change the Weather History Date:

Wednesday, December 4, 2013

  Actual Average (KBJC) Record (KBJC)
Temperature  
Mean Temperature 8 °F -  
Max Temperature 18 °F 44 °F 69 °F (2007)
Min Temperature -1 °F 26 °F 0 °F (2013)
Degree Days  
Heating Degree Days 56    
Moisture  
Dew Point 4 °F    
Average Humidity 75    
Maximum Humidity 84    
Minimum Humidity 56    
Precipitation  
Precipitation 0.00 in - - ()
Sea Level Pressure  
Sea Level Pressure 29.87 in    
Wind  
Wind Speed 5 mph (East)    
Max Wind Speed 9 mph    
Max Gust Speed -    
Visibility 6 miles    
Events Snow    
Averages and records for this station are not official NWS values.
T = Trace of Precipitation, MM = Missing Value Source: NWS Daily Summary

Daily Weather History Graph

Daily Weather History Graph

Search for Another Location

Airport or City:

Trip Planner

Search our weather history database for the weather conditions in past years. The results will help you decide how hot, cold, wet, or windy it might be!

Date:

Astronomy

Dec. 04, 2013 Rise Set
Actual Time 7:06 AM MST 4:34 PM MST
Civil Twilight 6:36 AM MST 5:05 PM MST
Nautical Twilight 6:02 AM MST 5:39 PM MST
Astronomical Twilight 5:30 AM MST 6:11 PM MST
Moon 8:37 AM MST (12/4) 6:48 PM MST (12/4)
Length of Visible Light 10h 28m
Length of Day
9h 27m
Waxing Crescent, 5% of the Moon is Illuminated
Dec 4
Waxing Crescent
Dec 9
First Quarter
Dec 17
Full
Dec 25
Last Quarter
Jan 1
New

Hourly Weather History & Observations

Time (MST) Temp. Windchill Dew Point Humidity Pressure Visibility Wind Dir Wind Speed Gust Speed Precip Events Conditions
12:12 AM 14.0 °F 5.1 °F 9.3 °F 82% 29.79 in 5.0 mi NNE 5.8 mph - N/A Snow Light Snow
12:32 AM 14.2 °F 4.1 °F 9.5 °F 82% 29.78 in 4.0 mi NE 6.9 mph - N/A Snow Light Snow
12:52 AM 13.5 °F 2.2 °F 8.2 °F 80% 29.78 in 5.0 mi NNE 8.1 mph - N/A Snow Light Snow
1:12 AM 13.1 °F 5.4 °F 8.6 °F 82% 29.77 in 4.0 mi NE 4.6 mph - N/A Snow Light Snow
1:32 AM 13.1 °F 4.0 °F 8.1 °F 80% 29.77 in 2.5 mi ENE 5.8 mph - N/A Snow Light Snow
1:52 AM 13.1 °F 5.4 °F 8.2 °F 81% 29.77 in 3.0 mi ENE 4.6 mph - N/A Snow Light Snow
2:12 AM 12.9 °F 1.6 °F 8.2 °F 82% 29.77 in 2.0 mi ENE 8.1 mph - N/A Snow Light Snow
2:32 AM 12.7 °F 1.4 °F 7.5 °F 80% 29.77 in 2.5 mi NE 8.1 mph - N/A Snow Light Snow
2:52 AM 12.4 °F 0.9 °F 7.3 °F 80% 29.77 in 3.0 mi ENE 8.1 mph - N/A Snow Light Snow
3:12 AM 12.2 °F 4.3 °F 7.3 °F 81% 29.76 in 3.0 mi ENE 4.6 mph - N/A Snow Light Snow
3:32 AM 12.0 °F 4.1 °F 7.0 °F 80% 29.77 in 2.5 mi NNE 4.6 mph - N/A Snow Light Snow
3:52 AM 11.7 °F 0.0 °F 6.8 °F 81% 29.77 in 2.0 mi NE 8.1 mph - N/A Snow Light Snow
4:12 AM 11.3 °F 0.7 °F 6.8 °F 82% 29.76 in 1.8 mi ENE 6.9 mph - N/A Snow Light Snow
4:32 AM 11.3 °F -0.4 °F 6.8 °F 82% 29.76 in 1.8 mi ENE 8.1 mph - N/A Snow Light Snow
4:52 AM 10.8 °F -2.0 °F 5.9 °F 81% 29.76 in 1.0 mi NE 9.2 mph - N/A Snow Light Snow
5:12 AM 9.9 °F -1.1 °F 5.0 °F 81% 29.78 in 1.8 mi NNE 6.9 mph - N/A Snow Light Snow
5:32 AM 9.5 °F 3.0 °F 5.0 °F 82% 29.76 in 1.8 mi ENE 3.5 mph - N/A Snow Light Snow
5:52 AM 9.9 °F - 5.2 °F 81% 29.77 in 2.5 mi Calm Calm - N/A Snow Light Snow
6:12 AM 9.9 °F - 5.0 °F 81% 29.76 in 3.0 mi Calm Calm - N/A Snow Light Snow
6:32 AM 10.0 °F - 5.7 °F 83% 29.78 in 1.2 mi Calm Calm - N/A Snow Light Snow
6:52 AM 10.0 °F - 5.7 °F 83% 29.80 in 2.0 mi Calm Calm - N/A Snow Light Snow
7:12 AM 10.0 °F 3.6 °F 5.5 °F 82% 29.77 in 0.8 mi ESE 3.5 mph - N/A Snow Snow
7:32 AM 10.2 °F 3.8 °F 5.9 °F 83% 29.81 in 0.5 mi SE 3.5 mph - N/A Snow Snow
7:52 AM 10.2 °F 0.6 °F 5.7 °F 82% 29.80 in 0.5 mi ESE 5.8 mph - N/A Snow Snow
8:12 AM 10.8 °F 2.7 °F 5.7 °F 80% 29.80 in 1.0 mi East 4.6 mph - N/A Snow Light Snow
8:32 AM 11.1 °F 4.9 °F 6.3 °F 81% 29.80 in 1.2 mi East 3.5 mph - N/A Snow Light Snow
8:52 AM 12.2 °F 2.9 °F 6.1 °F 76% 29.82 in 1.0 mi East 5.8 mph - N/A Snow Light Snow
9:12 AM 12.6 °F 3.4 °F 5.7 °F 74% 29.80 in 2.5 mi ENE 5.8 mph - N/A Snow Light Snow
9:32 AM 13.8 °F 6.2 °F 5.9 °F 71% 29.83 in 4.0 mi ENE 4.6 mph - N/A Snow Light Snow
9:52 AM 13.3 °F 7.3 °F 5.0 °F 70% 29.83 in 5.0 mi ENE 3.5 mph - N/A   Haze
10:12 AM 15.8 °F - 5.5 °F 64% 29.84 in 7.0 mi Calm Calm - N/A Snow Light Snow
10:32 AM 17.1 °F - 5.2 °F 60% 29.84 in 10.0 mi Calm Calm - N/A   Scattered Clouds
10:52 AM 16.3 °F - 3.9 °F 58% 29.81 in 10.0 mi Calm Calm - N/A   Scattered Clouds
11:12 AM 15.3 °F - 4.1 °F 61% 29.83 in 4.0 mi Calm Calm - N/A Snow Light Snow
11:32 AM 17.6 °F 9.3 °F 5.9 °F 60% 29.84 in 3.0 mi SE 5.8 mph - N/A Snow Light Snow
11:52 AM 18.9 °F 13.7 °F 5.5 °F 56% 29.82 in 7.0 mi ESE 3.5 mph - N/A   Overcast
12:12 PM 17.4 °F 10.4 °F 5.9 °F 61% 29.85 in 2.0 mi ESE 4.6 mph - N/A Snow Light Snow
12:32 PM 17.6 °F 12.3 °F 5.7 °F 60% 29.84 in 2.0 mi East 3.5 mph - N/A Snow Light Snow
12:52 PM 18.0 °F 12.7 °F 6.3 °F 60% 29.83 in 2.5 mi ESE 3.5 mph - N/A Snow Light Snow
1:12 PM 18.5 °F 11.7 °F 7.0 °F 61% 29.84 in 3.0 mi ESE 4.6 mph - N/A Snow Light Snow
1:32 PM 17.4 °F 8.0 °F 7.3 °F 65% 29.85 in 2.0 mi ESE 6.9 mph - N/A Snow Light Snow
1:52 PM 17.1 °F 8.7 °F 7.2 °F 65% 29.83 in 3.0 mi East 5.8 mph - N/A Snow Light Snow
2:12 PM 17.1 °F 11.7 °F 5.7 °F 61% 29.83 in 7.0 mi ESE 3.5 mph - N/A Snow Light Snow
2:32 PM 15.8 °F 7.2 °F 6.1 °F 66% 29.86 in 7.0 mi East 5.8 mph - N/A   Overcast
2:52 PM 15.3 °F 4.4 °F 6.3 °F 68% 29.85 in 7.0 mi ENE 8.1 mph - N/A   Overcast
3:12 PM 14.7 °F 3.8 °F 6.4 °F 70% 29.86 in 10.0 mi NE 8.1 mph - N/A   Overcast
3:32 PM 14.2 °F 4.1 °F 3.9 °F 64% 29.88 in 10.0 mi NE 6.9 mph - N/A   Overcast
3:52 PM 12.6 °F 3.4 °F 3.4 °F 67% 29.89 in 10.0 mi NE 5.8 mph - N/A   Overcast
4:12 PM 11.1 °F 4.9 °F 2.8 °F 69% 29.91 in 10.0 mi NE 3.5 mph - N/A   Scattered Clouds
4:32 PM 9.7 °F - 2.3 °F 72% 29.91 in 10.0 mi Calm Calm - N/A   Scattered Clouds
4:52 PM 8.6 °F - 1.9 °F 74% 29.92 in 10.0 mi Calm Calm - N/A   Mostly Cloudy
5:12 PM 9.1 °F 0.8 °F 2.3 °F 74% 29.93 in 10.0 mi East 4.6 mph - N/A   Mostly Cloudy
5:32 PM 7.9 °F -5.5 °F 1.8 °F 76% 29.95 in 10.0 mi East 9.2 mph - N/A   Scattered Clouds
5:52 PM 6.6 °F -0.3 °F 0.5 °F 76% 29.96 in 10.0 mi ESE 3.5 mph - N/A   Scattered Clouds
6:12 PM 6.6 °F -0.3 °F 1.8 °F 80% 29.96 in 10.0 mi SE 3.5 mph - N/A   Scattered Clouds
6:32 PM 7.0 °F - 2.3 °F 81% 29.98 in 10.0 mi Calm Calm - N/A   Scattered Clouds
6:52 PM 6.8 °F -0.1 °F 1.8 °F 80% 29.99 in 10.0 mi SSE 3.5 mph - N/A   Scattered Clouds
7:12 PM 5.7 °F -1.3 °F 0.5 °F 79% 29.99 in 10.0 mi SE 3.5 mph - N/A   Scattered Clouds
7:32 PM 5.0 °F - -0.0 °F 80% 30.00 in 10.0 mi Calm Calm - N/A   Clear
7:52 PM 2.5 °F - -2.2 °F 81% 30.00 in 10.0 mi Calm Calm - N/A   Scattered Clouds
8:12 PM 1.4 °F - -2.7 °F 83% 30.01 in 10.0 mi Calm Calm - N/A   Clear
8:32 PM -1.5 °F - -5.8 °F 82% 30.00 in 10.0 mi Calm Calm - N/A   Clear
8:52 PM -1.1 °F - -5.1 °F 83% 30.02 in 10.0 mi Calm Calm - N/A   Scattered Clouds
9:12 PM -0.9 °F -11.0 °F -4.7 °F 84% 30.03 in 10.0 mi North 4.6 mph - N/A   Mostly Cloudy
9:32 PM 3.0 °F -8.0 °F -0.9 °F 84% 30.03 in 10.0 mi East 5.8 mph - N/A   Overcast
9:52 PM 4.1 °F -6.7 °F -1.1 °F 79% 30.03 in 10.0 mi SE 5.8 mph - N/A   Overcast
10:12 PM 4.5 °F -2.7 °F -1.3 °F 77% 30.03 in 10.0 mi ESE 3.5 mph - N/A   Overcast
10:32 PM 4.1 °F -6.7 °F -1.5 °F 78% 30.05 in 10.0 mi East 5.8 mph - N/A   Overcast
10:52 PM 4.1 °F - -2.4 °F 75% 30.05 in 10.0 mi Calm Calm - N/A   Overcast
11:12 PM 4.1 °F -3.2 °F -2.6 °F 74% 30.06 in 10.0 mi ESE 3.5 mph - N/A   Overcast
11:32 PM 4.5 °F -4.7 °F -2.6 °F 73% 30.06 in 10.0 mi ESE 4.6 mph - N/A   Overcast
11:52 PM 4.8 °F -5.8 °F -2.4 °F 72% 30.06 in 10.0 mi East 5.8 mph - N/A   Overcast